STARLINK AA (44259 NORAD) Tracking and Keplerian Element Data

This shows tracking and keplerian element data for the satellite.

Feedback or suggestion? Click here.




ElementValue
Catalog44259
NameSTARLINK AA
Epoch Orbit243
Epoch Day159.44759213
Epoch Year2019
RAAN103.0246
Inclination53.0007
Eccentricity0.0002024
Argument of Perigee106.0599
Mean Anonmoly254.062
Mean Motion15.23864773
Decay Rate-0.00744824
L11 44259U 19029AA 19159.44759213 -.00744824 00000-0 -32746-1 0 9999
L22 44259 53.0007 103.0246 0002024 106.0599 254.0620 15.23864773 2439

Live tracking and technical data element details for STARLINK AA (NORAD 44259). STARLINK AA can be tracked NOW for your location showing map with azimuth and elevation plus other details from your city location.

Track the satellite on the map from your city or location and see movement details for azimuth, elevation, latitude, longitude, range, height, and movement on the map or in text.







IsCatalogInMostPopularTable: catalog: 44259, numindb: 36
Update: records affected: 1



GetName: 44259 STARLINK AA

Hit Count: updated at: Wed, 17 Jul 2019 09:31:22 GMT